カタログに戻る

RANGE A

運用中科学SSO
NORAD 43773·PAYLOAD·🇺🇸 United States

打ち上げ Dec 3, 2018 から Vandenberg Space Force Base

Loading…

次のパス (今後24時間)

TLE

最新Source: Space-Track

元期: Sep 14, 2026, 13:13 UTC

1 43773U 18099R   26257.55115842  .00003187  00000-0  17872-3 0  9991
2 43773  97.3886 297.5181 0011219  45.1702 315.0440 15.14024976426012

AllMySatでRANGE Aをリアルタイム追跡

Download on the App Store